| time (UTC) | temp C | wind direction | speed KPH | gust KPH | rain 1hr cm | rain 24hr cm | rain mn cm | humidity % | barometer mb |
| 20260510160339 | 28 | 150 | 4.8 | 11.3 | 0.00 | 0.00 | 0.00 | 70 | 1014.7 |
| 20260510155833 | 27 | 146 | 4.8 | 12.9 | 0.00 | 0.00 | 0.00 | 70 | 1014.6 |
| 20260510155327 | 27 | 160 | 4.8 | 12.9 | 0.00 | 0.00 | 0.00 | 70 | 1014.6 |
| 20260510154821 | 27 | 115 | 4.8 | 11.3 | 0.00 | 0.00 | 0.00 | 72 | 1014.5 |
| 20260510154040 | 27 | 157 | 3.2 | 11.3 | 0.00 | 0.00 | 0.00 | 71 | 1014.4 |
| 20260510153303 | 27 | 157 | 3.2 | 11.3 | 0.00 | 0.00 | 0.00 | 72 | 1014.4 |
| 20260510152757 | 27 | 153 | 3.2 | 11.3 | 0.00 | 0.00 | 0.00 | 72 | 1014.4 |
| 20260510152251 | 27 | 282 | 4.8 | 12.9 | 0.00 | 0.00 | 0.00 | 70 | 1014.4 |
| 20260510151745 | 27 | 169 | 3.2 | 12.9 | 0.00 | 0.00 | 0.00 | 72 | 1014.4 |
| 20260510151239 | 27 | 236 | 1.6 | 6.4 | 0.00 | 0.00 | 0.00 | 73 | 1014.3 |
| 20260510150732 | 27 | 236 | 1.6 | 6.4 | 0.00 | 0.00 | 0.00 | 74 | 1014.2 |
| 20260510150227 | 26 | 236 | 1.6 | 6.4 | 0.00 | 0.00 | 0.00 | 75 | 1014.1 |
| 20260510145958 | 26 | 236 | 3.2 | 6.4 | 0.00 | 0.00 | 0.00 | 76 | 1014.2 |
| 20260510144730 | 25 | 232 | 3.2 | 12.9 | 0.00 | 0.00 | 0.00 | 76 | 1014.2 |
| 20260510144228 | 25 | 232 | 3.2 | 8.0 | 0.00 | 0.00 | 0.00 | 76 | 1014.2 |
| 20260510143725 | 25 | 219 | 3.2 | 6.4 | 0.00 | 0.00 | 0.00 | 78 | 1014.1 |
| 20260510143455 | 25 | 224 | 3.2 | 12.9 | 0.00 | 0.00 | 0.00 | 78 | 1014.2 |
| 20260510142725 | 25 | 269 | 4.8 | 16.1 | 0.00 | 0.00 | 0.00 | 78 | 1014.0 |
| 20260510142225 | 25 | 248 | 3.2 | 16.1 | 0.00 | 0.00 | 0.00 | 78 | 1014.0 |
| 20260510141723 | 25 | 259 | 3.2 | 11.3 | 0.00 | 0.00 | 0.00 | 79 | 1013.9 |
| 20260510141223 | 24 | 205 | 3.2 | 8.0 | 0.00 | 0.00 | 0.00 | 80 | 1013.9 |
| 20260510140723 | 24 | 232 | 3.2 | 14.5 | 0.00 | 0.00 | 0.00 | 81 | 1013.8 |
| 20260510140223 | 24 | 228 | 3.2 | 14.5 | 0.00 | 0.00 | 0.00 | 81 | 1013.9 |
| 20260510135725 | 24 | 215 | 3.2 | 9.7 | 0.00 | 0.00 | 0.00 | 82 | 1013.8 |
| 20260510135226 | 23 | 211 | 1.6 | 9.7 | 0.00 | 0.00 | 0.00 | 82 | 1013.9 |
| 20260510134723 | 23 | 241 | 1.6 | 8.0 | 0.00 | 0.00 | 0.00 | 82 | 1013.8 |
| 20260510134222 | 23 | 236 | 1.6 | 8.0 | 0.00 | 0.00 | 0.00 | 82 | 1013.8 |
| 20260510133719 | 23 | 234 | 1.6 | 6.4 | 0.00 | 0.00 | 0.00 | 83 | 1013.7 |
| 20260510133219 | 22 | 234 | 1.6 | 8.0 | 0.00 | 0.00 | 0.00 | 83 | 1013.7 |
| 20260510132719 | 22 | 239 | 1.6 | 8.0 | 0.00 | 0.00 | 0.00 | 84 | 1013.7 |
| 20260510132218 | 22 | 236 | 1.6 | 3.2 | 0.00 | 0.00 | 0.00 | 85 | 1013.6 |
| 20260510131719 | 22 | 236 | 1.6 | 3.2 | 0.00 | 0.00 | 0.00 | 85 | 1013.6 |
| 20260510131219 | 22 | 236 | 0.0 | 3.2 | 0.00 | 0.00 | 0.00 | 85 | 1013.5 |
| 20260510130718 | 21 | 236 | 0.0 | 1.6 | 0.00 | 0.00 | 0.00 | 86 | 1013.4 |
| 20260510130218 | 21 | 236 | 0.0 | 0.0 | 0.00 | 0.00 | 0.00 | 86 | 1013.4 |
| 20260510125445 | 21 | 236 | 0.0 | 0.0 | 0.00 | 0.00 | 0.00 | 86 | 1013.4 |
| 20260510124945 | 20 | 236 | 0.0 | 0.0 | 0.00 | 0.00 | 0.00 | 87 | 1013.3 |
| 20260510124214 | 20 | 236 | 0.0 | 0.0 | 0.00 | 0.00 | 0.00 | 87 | 1013.2 |
| 20260510123715 | 20 | 236 | 0.0 | 0.0 | 0.00 | 0.00 | 0.00 | 87 | 1013.2 |
| 20260510123446 | 20 | 236 | 0.0 | 0.0 | 0.00 | 0.00 | 0.00 | 87 | 1013.1 |
| 20260510122715 | 19 | 236 | 0.0 | 0.0 | 0.00 | 0.00 | 0.00 | 87 | 1013.1 |
| 20260510122215 | 19 | 236 | 0.0 | 0.0 | 0.00 | 0.00 | 0.00 | 87 | 1013.1 |
| 20260510121715 | 19 | 236 | 0.0 | 0.0 | 0.00 | 0.00 | 0.00 | 88 | 1013.1 |
| 20260510121215 | 19 | 236 | 0.0 | 1.6 | 0.00 | 0.00 | 0.00 | 88 | 1013.1 |
| 20260510120707 | 19 | 236 | 0.0 | 1.6 | 0.00 | 0.00 | 0.00 | 88 | 1013.1 |
| 20260510120202 | 19 | 236 | 0.0 | 0.0 | 0.00 | 0.00 | 0.00 | 88 | 1013.1 |
| 20260510115656 | 19 | 236 | 0.0 | 0.0 | 0.00 | 0.00 | 0.00 | 88 | 1013.2 |
| 20260510115150 | 19 | 236 | 0.0 | 0.0 | 0.00 | 0.00 | 0.00 | 87 | 1013.1 |
| 20260510114644 | 19 | 236 | 0.0 | 0.0 | 0.00 | 0.00 | 0.00 | 87 | 1013.1 |
| 20260510114139 | 19 | 236 | 0.0 | 0.0 | 0.00 | 0.00 | 0.00 | 87 | 1013.1 |
| 20260510113902 | 19 | 236 | 0.0 | 0.0 | 0.00 | 0.00 | 0.00 | 87 | 1013.1 |
| 20260510113126 | 19 | 236 | 0.0 | 0.0 | 0.00 | 0.00 | 0.00 | 87 | 1013.1 |
| 20260510112620 | 19 | 236 | 0.0 | 0.0 | 0.00 | 0.00 | 0.00 | 87 | 1013.1 |
| 20260510112114 | 19 | 236 | 0.0 | 0.0 | 0.00 | 0.00 | 0.00 | 87 | 1013.1 |
| 20260510111608 | 19 | 236 | 0.0 | 0.0 | 0.00 | 0.00 | 0.00 | 87 | 1013.0 |
| 20260510111102 | 19 | 236 | 0.0 | 0.0 | 0.00 | 0.00 | 0.00 | 87 | 1013.1 |
| 20260510110555 | 19 | 236 | 0.0 | 0.0 | 0.00 | 0.00 | 0.00 | 87 | 1013.0 |
| 20260510105542 | 19 | 236 | 0.0 | 0.0 | 0.00 | 0.00 | 0.00 | 85 | 1013.1 |
| 20260510104530 | 19 | 236 | 0.0 | 1.6 | 0.00 | 0.00 | 0.00 | 86 | 1012.9 |
| 20260510104024 | 19 | 236 | 0.0 | 1.6 | 0.00 | 0.00 | 0.00 | 86 | 1013.0 |
| 20260510103517 | 19 | 236 | 0.0 | 3.2 | 0.00 | 0.00 | 0.00 | 86 | 1013.1 |
| 20260510103012 | 20 | 236 | 0.0 | 3.2 | 0.00 | 0.00 | 0.00 | 86 | 1013.1 |
| 20260510102506 | 20 | 236 | 0.0 | 0.0 | 0.00 | 0.00 | 0.00 | 86 | 1013.0 |
| 20260510102000 | 20 | 236 | 0.0 | 0.0 | 0.00 | 0.00 | 0.00 | 86 | 1013.0 |
| 20260510101726 | 20 | 236 | 0.0 | 0.0 | 0.00 | 0.00 | 0.00 | 86 | 1013.0 |
| 20260510100948 | 20 | 236 | 0.0 | 0.0 | 0.00 | 0.00 | 0.00 | 85 | 1013.1 |
| 20260510100442 | 20 | 236 | 0.0 | 0.0 | 0.00 | 0.00 | 0.00 | 85 | 1013.1 |
| 20260510095936 | 20 | 236 | 0.0 | 0.0 | 0.00 | 0.00 | 0.00 | 85 | 1013.0 |
| 20260510095430 | 20 | 236 | 0.0 | 0.0 | 0.00 | 0.00 | 0.00 | 84 | 1013.0 |
| 20260510094924 | 20 | 236 | 0.0 | 0.0 | 0.00 | 0.00 | 0.00 | 84 | 1013.0 |
| 20260510094417 | 20 | 236 | 0.0 | 0.0 | 0.00 | 0.00 | 0.00 | 83 | 1013.0 |
| 20260510093912 | 20 | 236 | 0.0 | 0.0 | 0.00 | 0.00 | 0.00 | 83 | 1013.1 |
| 20260510093406 | 20 | 236 | 0.0 | 0.0 | 0.00 | 0.00 | 0.00 | 83 | 1013.1 |
| 20260510092900 | 20 | 236 | 0.0 | 0.0 | 0.00 | 0.00 | 0.00 | 83 | 1012.9 |
| 20260510092353 | 21 | 236 | 0.0 | 0.0 | 0.00 | 0.00 | 0.00 | 83 | 1012.9 |
| 20260510091848 | 21 | 236 | 0.0 | 0.0 | 0.00 | 0.00 | 0.00 | 83 | 1012.9 |
| 20260510091343 | 21 | 236 | 0.0 | 0.0 | 0.00 | 0.00 | 0.00 | 83 | 1012.8 |
| 20260510090836 | 21 | 236 | 0.0 | 0.0 | 0.00 | 0.00 | 0.00 | 83 | 1012.8 |
| 20260510090330 | 21 | 236 | 0.0 | 0.0 | 0.00 | 0.00 | 0.00 | 82 | 1012.7 |
| 20260510085824 | 21 | 236 | 0.0 | 1.6 | 0.00 | 0.00 | 0.00 | 82 | 1012.7 |
| 20260510085318 | 21 | 236 | 0.0 | 1.6 | 0.00 | 0.00 | 0.00 | 82 | 1012.6 |
| 20260510084811 | 21 | 236 | 0.0 | 1.6 | 0.00 | 0.00 | 0.00 | 82 | 1012.5 |
| 20260510084306 | 21 | 236 | 0.0 | 1.6 | 0.00 | 0.00 | 0.00 | 81 | 1012.5 |
| 20260510083800 | 21 | 236 | 0.0 | 1.6 | 0.00 | 0.00 | 0.00 | 81 | 1012.5 |
| 20260510083254 | 21 | 236 | 0.0 | 1.6 | 0.00 | 0.00 | 0.00 | 80 | 1012.5 |
| 20260510082748 | 21 | 236 | 0.0 | 0.0 | 0.00 | 0.00 | 0.00 | 80 | 1012.6 |
| 20260510082242 | 22 | 236 | 0.0 | 0.0 | 0.00 | 0.00 | 0.00 | 80 | 1012.7 |
| 20260510081736 | 22 | 236 | 0.0 | 0.0 | 0.00 | 0.00 | 0.00 | 79 | 1012.7 |
| 20260510081230 | 22 | 236 | 0.0 | 0.0 | 0.00 | 0.00 | 0.00 | 79 | 1012.7 |
| 20260510080724 | 22 | 236 | 0.0 | 1.6 | 0.00 | 0.00 | 0.00 | 78 | 1012.6 |
| 20260510080218 | 22 | 236 | 0.0 | 1.6 | 0.00 | 0.00 | 0.00 | 78 | 1012.7 |
| 20260510075712 | 22 | 236 | 0.0 | 1.6 | 0.00 | 0.00 | 0.00 | 78 | 1012.6 |
| 20260510075444 | 22 | 236 | 0.0 | 1.6 | 0.00 | 0.00 | 0.00 | 78 | 1012.5 |
| 20260510074712 | 22 | 236 | 0.0 | 1.6 | 0.00 | 0.00 | 0.00 | 77 | 1012.5 |
| 20260510074443 | 22 | 236 | 0.0 | 1.6 | 0.00 | 0.00 | 0.00 | 77 | 1012.5 |
| 20260510073709 | 22 | 236 | 0.0 | 4.8 | 0.00 | 0.00 | 0.00 | 77 | 1012.5 |
| 20260510073208 | 23 | 236 | 0.0 | 4.8 | 0.00 | 0.00 | 0.00 | 77 | 1012.5 |
| 20260510072706 | 23 | 236 | 0.0 | 3.2 | 0.00 | 0.00 | 0.00 | 77 | 1012.7 |
| 20260510072209 | 23 | 236 | 0.0 | 3.2 | 0.00 | 0.00 | 0.00 | 77 | 1012.7 |
| 20260510071706 | 23 | 236 | 1.6 | 4.8 | 0.00 | 0.00 | 0.00 | 76 | 1012.7 |
| 20260510071436 | 23 | 237 | 1.6 | 6.4 | 0.00 | 0.00 | 0.00 | 76 | 1012.8 |
| 20260510070703 | 23 | 237 | 1.6 | 6.4 | 0.00 | 0.00 | 0.00 | 76 | 1012.7 |
| 20260510070204 | 23 | 237 | 0.0 | 4.8 | 0.00 | 0.00 | 0.00 | 76 | 1012.7 |
| 20260510065703 | 23 | 238 | 1.6 | 4.8 | 0.00 | 0.00 | 0.00 | 76 | 1012.8 |
| 20260510065436 | 23 | 238 | 1.6 | 4.8 | 0.00 | 0.00 | 0.00 | 75 | 1012.7 |
| 20260510064704 | 23 | 242 | 1.6 | 6.4 | 0.00 | 0.00 | 0.00 | 75 | 1012.8 |
| 20260510064204 | 23 | 243 | 1.6 | 6.4 | 0.00 | 0.00 | 0.00 | 75 | 1012.8 |
| 20260510063704 | 23 | 244 | 1.6 | 17.7 | 0.00 | 0.00 | 0.00 | 75 | 1012.8 |
| 20260510063204 | 23 | 246 | 1.6 | 17.7 | 0.00 | 0.00 | 0.00 | 76 | 1012.8 |
| 20260510062932 | 23 | 188 | 1.6 | 8.0 | 0.00 | 0.00 | 0.00 | 76 | 1012.8 |
| 20260510062433 | 23 | 183 | 1.6 | 4.8 | 0.00 | 0.00 | 0.00 | 76 | 1012.8 |
| 20260510061701 | 23 | 182 | 0.0 | 8.0 | 0.00 | 0.00 | 0.00 | 76 | 1012.8 |
| 20260510061204 | 23 | 182 | 0.0 | 8.0 | 0.00 | 0.00 | 0.00 | 76 | 1012.9 |
| 20260510060934 | 23 | 185 | 0.0 | 0.0 | 0.00 | 0.00 | 0.00 | 76 | 1012.9 |
| 20260510060202 | 24 | 185 | 0.0 | 0.0 | 0.00 | 0.00 | 0.00 | 76 | 1012.9 |
| 20260510055704 | 24 | 185 | 0.0 | 0.0 | 0.00 | 0.00 | 0.00 | 76 | 1013.0 |
| 20260510055201 | 24 | 185 | 0.0 | 0.0 | 0.00 | 0.00 | 0.00 | 76 | 1012.8 |
| 20260510054702 | 24 | 185 | 0.0 | 0.0 | 0.00 | 0.00 | 0.00 | 75 | 1012.8 |
| 20260510054202 | 24 | 185 | 0.0 | 0.0 | 0.00 | 0.00 | 0.00 | 75 | 1012.7 |
| 20260510053932 | 24 | 185 | 0.0 | 0.0 | 0.00 | 0.00 | 0.00 | 75 | 1012.7 |
| 20260510053202 | 24 | 185 | 0.0 | 0.0 | 0.00 | 0.00 | 0.00 | 75 | 1012.6 |
| 20260510052702 | 24 | 185 | 0.0 | 0.0 | 0.00 | 0.00 | 0.00 | 75 | 1012.6 |
| 20260510052202 | 24 | 185 | 0.0 | 0.0 | 0.00 | 0.00 | 0.00 | 75 | 1012.5 |
| 20260510051702 | 25 | 186 | 0.0 | 0.0 | 0.00 | 0.00 | 0.00 | 74 | 1012.5 |
| 20260510051208 | 25 | 186 | 0.0 | 0.0 | 0.00 | 0.00 | 0.00 | 73 | 1012.4 |
| 20260510050704 | 25 | 186 | 0.0 | 0.0 | 0.00 | 0.00 | 0.00 | 72 | 1012.4 |
| 20260510050429 | 25 | 186 | 0.0 | 4.8 | 0.00 | 0.00 | 0.00 | 72 | 1012.2 |
| 20260510045658 | 25 | 186 | 1.6 | 8.0 | 0.00 | 0.00 | 0.00 | 72 | 1012.1 |
| 20260510045152 | 25 | 186 | 1.6 | 8.0 | 0.00 | 0.00 | 0.00 | 71 | 1012.1 |
| 20260510044645 | 25 | 186 | 1.6 | 6.4 | 0.00 | 0.00 | 0.00 | 71 | 1012.1 |
| 20260510044139 | 25 | 188 | 1.6 | 9.7 | 0.00 | 0.00 | 0.00 | 71 | 1012.1 |
| 20260510043634 | 25 | 188 | 1.6 | 9.7 | 0.00 | 0.00 | 0.00 | 71 | 1012.1 |
| 20260510043358 | 25 | 183 | 0.0 | 0.0 | 0.00 | 0.00 | 0.00 | 71 | 1012.0 |
| 20260510042853 | 25 | 183 | 0.0 | 0.0 | 0.00 | 0.00 | 0.00 | 71 | 1011.9 |
| 20260510042115 | 25 | 183 | 0.0 | 0.0 | 0.00 | 0.00 | 0.00 | 71 | 1011.9 |
| 20260510041610 | 25 | 183 | 0.0 | 0.0 | 0.00 | 0.00 | 0.00 | 71 | 1011.9 |
| 20260510041104 | 26 | 183 | 0.0 | 0.0 | 0.00 | 0.00 | 0.00 | 70 | 1011.9 |
| 20260510040828 | 26 | 183 | 0.0 | 0.0 | 0.00 | 0.00 | 0.00 | 70 | 1011.9 |
| 20260510040052 | 26 | 183 | 0.0 | 0.0 | 0.00 | 0.00 | 0.00 | 70 | 1011.9 |
| 20260510035546 | 26 | 183 | 0.0 | 0.0 | 0.00 | 0.00 | 0.00 | 70 | 1011.8 |
| 20260510035040 | 26 | 183 | 0.0 | 0.0 | 0.00 | 0.00 | 0.00 | 70 | 1011.8 |
| 20260510034804 | 26 | 183 | 0.0 | 0.0 | 0.00 | 0.00 | 0.00 | 69 | 1011.8 |
| 20260510034027 | 26 | 183 | 0.0 | 0.0 | 0.00 | 0.00 | 0.00 | 69 | 1011.7 |
| 20260510033521 | 26 | 183 | 0.0 | 0.0 | 0.00 | 0.00 | 0.00 | 69 | 1011.8 |
| 20260510032509 | 26 | 183 | 0.0 | 0.0 | 0.00 | 0.00 | 0.00 | 68 | 1011.7 |
| 20260510032004 | 26 | 183 | 0.0 | 0.0 | 0.00 | 0.00 | 0.00 | 68 | 1011.7 |
| 20260510031458 | 26 | 183 | 0.0 | 0.0 | 0.00 | 0.00 | 0.00 | 68 | 1011.6 |
| 20260510030951 | 26 | 183 | 0.0 | 0.0 | 0.00 | 0.00 | 0.00 | 67 | 1011.6 |
| 20260510030451 | 26 | 183 | 0.0 | 0.0 | 0.00 | 0.00 | 0.00 | 67 | 1011.6 |
| 20260510025951 | 26 | 183 | 0.0 | 0.0 | 0.00 | 0.00 | 0.00 | 67 | 1011.5 |
| 20260510025450 | 27 | 183 | 0.0 | 0.0 | 0.00 | 0.00 | 0.00 | 67 | 1011.5 |
| 20260510024951 | 27 | 183 | 0.0 | 0.0 | 0.00 | 0.00 | 0.00 | 67 | 1011.4 |
| 20260510024451 | 27 | 183 | 0.0 | 3.2 | 0.00 | 0.00 | 0.00 | 67 | 1011.4 |
| 20260510023951 | 27 | 183 | 1.6 | 4.8 | 0.00 | 0.00 | 0.00 | 67 | 1011.3 |
| 20260510023451 | 27 | 183 | 0.0 | 4.8 | 0.00 | 0.00 | 0.00 | 67 | 1011.2 |
| 20260510023221 | 27 | 183 | 0.0 | 3.2 | 0.00 | 0.00 | 0.00 | 67 | 1011.2 |
| 20260510022451 | 27 | 183 | 0.0 | 3.2 | 0.00 | 0.00 | 0.00 | 67 | 1011.1 |
| 20260510021951 | 27 | 183 | 1.6 | 6.4 | 0.00 | 0.00 | 0.00 | 66 | 1011.0 |
| 20260510021451 | 27 | 182 | 1.6 | 6.4 | 0.00 | 0.00 | 0.00 | 66 | 1011.0 |
| 20260510021223 | 27 | 182 | 1.6 | 6.4 | 0.00 | 0.00 | 0.00 | 66 | 1010.9 |
| 20260510020452 | 28 | 183 | 1.6 | 4.8 | 0.00 | 0.00 | 0.00 | 65 | 1010.9 |
| 20260510015952 | 28 | 183 | 1.6 | 8.0 | 0.00 | 0.00 | 0.00 | 65 | 1010.8 |
| 20260510015451 | 28 | 183 | 1.6 | 8.0 | 0.00 | 0.00 | 0.00 | 64 | 1010.7 |
| 20260510014948 | 28 | 184 | 1.6 | 6.4 | 0.00 | 0.00 | 0.00 | 64 | 1010.6 |
| 20260510014448 | 28 | 184 | 1.6 | 4.8 | 0.00 | 0.00 | 0.00 | 64 | 1010.5 |
| 20260510013949 | 28 | 184 | 1.6 | 4.8 | 0.00 | 0.00 | 0.00 | 63 | 1010.4 |
| 20260510013442 | 28 | 185 | 0.0 | 4.8 | 0.00 | 0.00 | 0.00 | 63 | 1010.3 |
| 20260510013211 | 28 | 185 | 1.6 | 4.8 | 0.00 | 0.00 | 0.00 | 63 | 1010.2 |
| 20260510012440 | 28 | 185 | 1.6 | 4.8 | 0.00 | 0.00 | 0.00 | 63 | 1010.1 |
| 20260510011941 | 29 | 185 | 1.6 | 3.2 | 0.00 | 0.00 | 0.00 | 62 | 1010.0 |
| 20260510011712 | 29 | 185 | 1.6 | 6.4 | 0.00 | 0.00 | 0.00 | 62 | 1010.0 |
| 20260510010940 | 29 | 185 | 1.6 | 6.4 | 0.00 | 0.00 | 0.00 | 62 | 1009.9 |
| 20260510010441 | 29 | 184 | 3.2 | 8.0 | 0.00 | 0.00 | 0.00 | 62 | 1009.8 |
| 20260510005940 | 30 | 185 | 3.2 | 8.0 | 0.00 | 0.00 | 0.00 | 61 | 1009.8 |
| 20260510005438 | 30 | 198 | 1.6 | 6.4 | 0.00 | 0.00 | 0.00 | 61 | 1009.7 |
| 20260510004939 | 30 | 203 | 1.6 | 6.4 | 0.00 | 0.00 | 0.00 | 60 | 1009.7 |
| 20260510004436 | 30 | 205 | 1.6 | 6.4 | 0.00 | 0.00 | 0.00 | 60 | 1009.6 |
| 20260510003936 | 30 | 205 | 1.6 | 6.4 | 0.00 | 0.00 | 0.00 | 59 | 1009.5 |
| 20260510003436 | 30 | 205 | 1.6 | 6.4 | 0.00 | 0.00 | 0.00 | 58 | 1009.3 |
| 20260510003208 | 31 | 206 | 1.6 | 6.4 | 0.00 | 0.00 | 0.00 | 58 | 1009.1 |
| 20260510002434 | 31 | 209 | 1.6 | 8.0 | 0.00 | 0.00 | 0.00 | 57 | 1009.0 |
| 20260510001934 | 31 | 205 | 3.2 | 9.7 | 0.00 | 0.00 | 0.00 | 56 | 1008.9 |
| 20260510001436 | 31 | 180 | 3.2 | 9.7 | 0.00 | 0.00 | 0.00 | 55 | 1008.9 |
| 20260510000930 | 31 | 164 | 3.2 | 9.7 | 0.00 | 0.00 | 0.00 | 55 | 1009.1 |
| 20260510000425 | 31 | 164 | 3.2 | 9.7 | 0.00 | 0.00 | 0.00 | 54 | 1009.2 |
| 20260509235918 | 32 | 167 | 1.6 | 9.7 | 0.00 | 0.00 | 0.00 | 54 | 1009.3 |
| 20260509234906 | 32 | 166 | 3.2 | 9.7 | 0.00 | 0.00 | 0.00 | 54 | 1009.2 |
| 20260509234632 | 31 | 166 | 3.2 | 9.7 | 0.00 | 0.00 | 0.00 | 54 | 1009.1 |
| 20260509233855 | 32 | 167 | 3.2 | 11.3 | 0.00 | 0.00 | 0.00 | 54 | 1009.2 |
| 20260509233626 | 32 | 107 | 3.2 | 11.3 | 0.00 | 0.00 | 0.00 | 55 | 1009.2 |
| 20260509233114 | 32 | 156 | 3.2 | 9.7 | 0.00 | 0.00 | 0.00 | 54 | 1009.3 |
| 20260509232608 | 32 | 165 | 3.2 | 9.7 | 0.00 | 0.00 | 0.00 | 54 | 1009.3 |
| 20260509231830 | 32 | 217 | 3.2 | 9.7 | 0.00 | 0.00 | 0.00 | 53 | 1009.3 |
| 20260509231325 | 32 | 173 | 1.6 | 9.7 | 0.00 | 0.00 | 0.00 | 53 | 1009.3 |
| 20260509230820 | 33 | 218 | 1.6 | 8.0 | 0.00 | 0.00 | 0.00 | 54 | 1009.3 |
| 20260509230313 | 33 | 236 | 1.6 | 4.8 | 0.00 | 0.00 | 0.00 | 54 | 1009.3 |
| 20260509225807 | 33 | 236 | 3.2 | 8.0 | 0.00 | 0.00 | 0.00 | 53 | 1009.2 |
| 20260509225301 | 32 | 235 | 1.6 | 8.0 | 0.00 | 0.00 | 0.00 | 53 | 1009.1 |
| 20260509225025 | 32 | 219 | 1.6 | 6.4 | 0.00 | 0.00 | 0.00 | 54 | 1009.1 |
| 20260509224519 | 32 | 220 | 3.2 | 8.0 | 0.00 | 0.00 | 0.00 | 54 | 1009.2 |
| 20260509223742 | 32 | 229 | 3.2 | 8.0 | 0.00 | 0.00 | 0.00 | 55 | 1009.2 |
| 20260509223236 | 33 | 252 | 1.6 | 6.4 | 0.00 | 0.00 | 0.00 | 53 | 1009.1 |
| 20260509222731 | 33 | 252 | 1.6 | 6.4 | 0.00 | 0.00 | 0.00 | 53 | 1009.0 |
| 20260509222225 | 32 | 251 | 1.6 | 9.7 | 0.00 | 0.00 | 0.00 | 54 | 1009.1 |
| 20260509221719 | 32 | 256 | 3.2 | 9.7 | 0.00 | 0.00 | 0.00 | 54 | 1009.3 |
| 20260509221213 | 32 | 133 | 3.2 | 11.3 | 0.00 | 0.00 | 0.00 | 55 | 1009.2 |
| 20260509220707 | 32 | 234 | 3.2 | 11.3 | 0.00 | 0.00 | 0.00 | 55 | 1009.2 |
| 20260509215655 | 32 | 221 | 1.6 | 8.0 | 0.00 | 0.00 | 0.00 | 55 | 1009.3 |
| 20260509215149 | 32 | 246 | 1.6 | 9.7 | 0.00 | 0.00 | 0.00 | 54 | 1009.2 |
| 20260509214649 | 32 | 259 | 1.6 | 9.7 | 0.00 | 0.00 | 0.00 | 56 | 1009.3 |
| 20260509214146 | 32 | 178 | 1.6 | 6.4 | 0.00 | 0.00 | 0.00 | 56 | 1009.2 |
| 20260509213646 | 32 | 225 | 1.6 | 8.0 | 0.00 | 0.00 | 0.00 | 54 | 1009.3 |
| 20260509213144 | 32 | 225 | 1.6 | 8.0 | 0.00 | 0.00 | 0.00 | 54 | 1009.3 |
| 20260509212642 | 33 | 211 | 3.2 | 12.9 | 0.00 | 0.00 | 0.00 | 54 | 1009.5 |
| 20260509212415 | 32 | 191 | 3.2 | 12.9 | 0.00 | 0.00 | 0.00 | 55 | 1009.5 |
| 20260509211644 | 32 | 169 | 3.2 | 12.9 | 0.00 | 0.00 | 0.00 | 55 | 1009.5 |
| 20260509211414 | 32 | 235 | 1.6 | 11.3 | 0.00 | 0.00 | 0.00 | 55 | 1009.6 |
| 20260509210642 | 32 | 229 | 3.2 | 11.3 | 0.00 | 0.00 | 0.00 | 55 | 1009.7 |
| 20260509210142 | 32 | 224 | 3.2 | 11.3 | 0.00 | 0.00 | 0.00 | 55 | 1009.8 |
| 20260509205642 | 32 | 256 | 3.2 | 6.4 | 0.00 | 0.00 | 0.00 | 57 | 1009.9 |
| 20260509205142 | 32 | 253 | 3.2 | 6.4 | 0.00 | 0.00 | 0.00 | 56 | 1009.9 |
| 20260509204642 | 32 | 254 | 3.2 | 8.0 | 0.00 | 0.00 | 0.00 | 57 | 1010.0 |
| 20260509204140 | 32 | 296 | 1.6 | 12.9 | 0.00 | 0.00 | 0.00 | 57 | 1010.0 |
| 20260509203637 | 32 | 237 | 3.2 | 12.9 | 0.00 | 0.00 | 0.00 | 58 | 1010.2 |
| 20260509203138 | 32 | 250 | 3.2 | 11.3 | 0.00 | 0.00 | 0.00 | 58 | 1010.2 |
| 20260509202908 | 31 | 219 | 3.2 | 12.9 | 0.00 | 0.00 | 0.00 | 58 | 1010.5 |
| 20260509202138 | 31 | 196 | 1.6 | 12.9 | 0.00 | 0.00 | 0.00 | 61 | 1010.5 |
| 20260509201632 | 31 | 288 | 1.6 | 11.3 | 0.00 | 0.00 | 0.00 | 63 | 1010.6 |
| 20260509201126 | 30 | 290 | 3.2 | 11.3 | 0.00 | 0.00 | 0.00 | 62 | 1010.7 |
| 20260509200620 | 31 | 196 | 3.2 | 12.9 | 0.00 | 0.00 | 0.00 | 61 | 1010.8 |
| 20260509200113 | 31 | 210 | 3.2 | 12.9 | 0.00 | 0.00 | 0.00 | 61 | 1010.9 |
| 20260509195607 | 31 | 221 | 3.2 | 9.7 | 0.00 | 0.00 | 0.00 | 60 | 1011.0 |
| 20260509195107 | 31 | 171 | 3.2 | 14.5 | 0.00 | 0.00 | 0.00 | 61 | 1011.1 |
| 20260509194838 | 31 | 163 | 3.2 | 14.5 | 0.00 | 0.00 | 0.00 | 60 | 1011.1 |
| 20260509194107 | 31 | 171 | 3.2 | 11.3 | 0.00 | 0.00 | 0.00 | 62 | 1011.2 |
| 20260509193605 | 31 | 213 | 3.2 | 11.3 | 0.00 | 0.00 | 0.00 | 64 | 1011.2 |
| 20260509193106 | 30 | 245 | 3.2 | 11.3 | 0.00 | 0.00 | 0.00 | 63 | 1011.4 |
| 20260509192606 | 30 | 339 | 1.6 | 9.7 | 0.00 | 0.00 | 0.00 | 63 | 1011.4 |
| 20260509192106 | 30 | 217 | 1.6 | 9.7 | 0.00 | 0.00 | 0.00 | 64 | 1011.4 |
| 20260509191606 | 30 | 256 | 1.6 | 9.7 | 0.00 | 0.00 | 0.00 | 63 | 1011.4 |
| 20260509191106 | 30 | 263 | 1.6 | 9.7 | 0.00 | 0.00 | 0.00 | 63 | 1011.5 |
| 20260509190606 | 30 | 261 | 3.2 | 9.7 | 0.00 | 0.00 | 0.00 | 64 | 1011.5 |
| 20260509185606 | 30 | 274 | 3.2 | 11.3 | 0.00 | 0.00 | 0.00 | 63 | 1011.6 |
| 20260509185106 | 30 | 221 | 3.2 | 11.3 | 0.00 | 0.00 | 0.00 | 64 | 1011.7 |
| 20260509184605 | 30 | 215 | 3.2 | 11.3 | 0.00 | 0.00 | 0.00 | 66 | 1011.7 |
| 20260509184105 | 30 | 300 | 3.2 | 11.3 | 0.00 | 0.00 | 0.00 | 64 | 1011.8 |
| 20260509183606 | 30 | 213 | 3.2 | 11.3 | 0.00 | 0.00 | 0.00 | 63 | 1011.9 |
| 20260509183104 | 30 | 227 | 3.2 | 11.3 | 0.00 | 0.00 | 0.00 | 63 | 1011.9 |
| 20260509182603 | 30 | 244 | 3.2 | 11.3 | 0.00 | 0.00 | 0.00 | 67 | 1011.9 |
| 20260509182056 | 30 | 240 | 3.2 | 12.9 | 0.00 | 0.00 | 0.00 | 68 | 1012.0 |
| 20260509181555 | 30 | 248 | 4.8 | 14.5 | 0.00 | 0.00 | 0.00 | 67 | 1012.0 |
| 20260509181054 | 30 | 246 | 4.8 | 14.5 | 0.00 | 0.00 | 0.00 | 67 | 1012.2 |
| 20260509180835 | 30 | 224 | 4.8 | 16.1 | 0.00 | 0.00 | 0.00 | 65 | 1012.2 |
| 20260509180054 | 29 | 186 | 3.2 | 16.1 | 0.00 | 0.00 | 0.00 | 68 | 1012.1 |
| 20260509175552 | 29 | 259 | 4.8 | 11.3 | 0.00 | 0.00 | 0.00 | 69 | 1012.2 |
| 20260509175054 | 29 | 191 | 4.8 | 11.3 | 0.00 | 0.00 | 0.00 | 68 | 1012.2 |
| 20260509174551 | 29 | 232 | 4.8 | 12.9 | 0.00 | 0.00 | 0.00 | 69 | 1012.4 |
| 20260509174323 | 28 | 189 | 3.2 | 12.9 | 0.00 | 0.00 | 0.00 | 71 | 1012.5 |
| 20260509173821 | 28 | 252 | 4.8 | 16.1 | 0.00 | 0.00 | 0.00 | 72 | 1012.6 |
| 20260509173049 | 28 | 294 | 3.2 | 16.1 | 0.00 | 0.00 | 0.00 | 72 | 1012.6 |
| 20260509172550 | 28 | 211 | 1.6 | 11.3 | 0.00 | 0.00 | 0.00 | 73 | 1012.5 |
| 20260509172048 | 28 | 221 | 3.2 | 11.3 | 0.00 | 0.00 | 0.00 | 73 | 1012.7 |
| 20260509171545 | 28 | 249 | 3.2 | 11.3 | 0.00 | 0.00 | 0.00 | 74 | 1012.8 |
| 20260509171045 | 28 | 239 | 3.2 | 11.3 | 0.00 | 0.00 | 0.00 | 76 | 1012.8 |
| 20260509170545 | 27 | 262 | 1.6 | 11.3 | 0.00 | 0.00 | 0.00 | 76 | 1012.5 |
| 20260509170045 | 27 | 237 | 1.6 | 6.4 | 0.00 | 0.00 | 0.00 | 75 | 1012.6 |
| 20260509165550 | 27 | 234 | 1.6 | 9.7 | 0.00 | 0.00 | 0.00 | 74 | 1012.8 |
| 20260509165040 | 27 | 231 | 3.2 | 9.7 | 0.00 | 0.00 | 0.00 | 75 | 1012.9 |
| 20260509164534 | 27 | 283 | 3.2 | 11.3 | 0.00 | 0.00 | 0.00 | 75 | 1012.9 |
| 20260509163522 | 27 | 208 | 3.2 | 14.5 | 0.00 | 0.00 | 0.00 | 74 | 1012.7 |
| 20260509163021 | 27 | 274 | 3.2 | 12.9 | 0.00 | 0.00 | 0.00 | 74 | 1012.6 |
| 20260509162753 | 27 | 175 | 1.6 | 11.3 | 0.00 | 0.00 | 0.00 | 77 | 1012.6 |
| 20260509162023 | 26 | 171 | 3.2 | 9.7 | 0.00 | 0.00 | 0.00 | 80 | 1012.5 |
| 20260509161752 | 26 | 174 | 4.8 | 12.9 | 0.00 | 0.00 | 0.00 | 81 | 1012.4 |
| 20260509161021 | 26 | 172 | 4.8 | 12.9 | 0.00 | 0.00 | 0.00 | 81 | 1012.7 |